TimeCDT,TemperatureF,Dew PointF,Humidity,Sea Level PressureIn,VisibilityMPH,Wind Direction,Wind SpeedMPH,Gust SpeedMPH,PrecipitationIn,Events,Conditions,WindDirDegrees,DateUTC
12:15 AM,35.6,33.8,93,29.68,10.0,SW,4.6,-,N/A,,Clear,220,2012-10-09 05:15:00
12:35 AM,37.4,32.0,81,29.67,10.0,SW,5.8,-,N/A,,Scattered Clouds,230,2012-10-09 05:35:00
12:52 AM,37.4,32.0,81,29.67,10.0,WSW,5.8,-,N/A,,Clear,240,2012-10-09 05:52:00
1:15 AM,37.4,30.2,75,29.67,10.0,WSW,6.9,-,N/A,,Scattered Clouds,240,2012-10-09 06:15:00
1:53 AM,37.4,30.2,75,29.68,10.0,WSW,5.8,-,N/A,,Overcast,250,2012-10-09 06:53:00
2:15 AM,37.4,30.2,75,29.69,10.0,WSW,5.8,-,N/A,,Overcast,250,2012-10-09 07:15:00
2:53 AM,37.4,30.2,75,29.69,10.0,WSW,3.5,-,N/A,,Scattered Clouds,250,2012-10-09 07:53:00
3:15 AM,37.4,30.2,75,29.68,10.0,West,4.6,-,N/A,,Mostly Cloudy,260,2012-10-09 08:15:00
3:35 AM,35.6,30.2,81,29.68,10.0,WSW,3.5,-,N/A,,Mostly Cloudy,250,2012-10-09 08:35:00
3:53 AM,37.4,30.2,75,29.68,10.0,West,5.8,-,N/A,,Overcast,270,2012-10-09 08:53:00
4:14 AM,37.4,30.2,75,29.68,10.0,West,5.8,-,N/A,,Overcast,270,2012-10-09 09:14:00
4:35 AM,37.4,30.2,75,29.68,10.0,West,3.5,-,N/A,,Mostly Cloudy,260,2012-10-09 09:35:00
4:53 AM,35.6,28.4,75,29.68,10.0,West,5.8,-,N/A,,Scattered Clouds,260,2012-10-09 09:53:00
5:14 AM,35.6,28.4,75,29.68,10.0,West,5.8,-,N/A,,Scattered Clouds,260,2012-10-09 10:14:00
5:35 AM,35.6,28.4,75,29.69,10.0,West,6.9,-,N/A,,Scattered Clouds,270,2012-10-09 10:35:00
6:15 AM,35.6,26.6,70,29.70,10.0,West,9.2,17.3,N/A,,Clear,270,2012-10-09 11:15:00
6:35 AM,33.8,26.6,75,29.70,10.0,West,8.1,-,N/A,,Clear,260,2012-10-09 11:35:00
6:52 AM,33.8,26.6,75,29.70,10.0,West,10.4,-,N/A,,Clear,260,2012-10-09 11:52:00
7:15 AM,33.8,26.6,75,29.70,10.0,West,10.4,-,N/A,,Clear,260,2012-10-09 12:15:00
7:35 AM,33.8,26.6,75,29.70,10.0,WSW,9.2,-,N/A,,Clear,250,2012-10-09 12:35:00
7:53 AM,33.8,26.6,75,29.70,10.0,WSW,8.1,-,N/A,,Scattered Clouds,250,2012-10-09 12:53:00
8:15 AM,33.8,26.6,75,29.70,10.0,WSW,6.9,-,N/A,,Overcast,250,2012-10-09 13:15:00
8:35 AM,35.6,26.6,70,29.70,10.0,WSW,10.4,-,N/A,,Overcast,250,2012-10-09 13:35:00
8:52 AM,35.6,26.6,70,29.70,10.0,West,13.8,19.6,N/A,,Overcast,260,2012-10-09 13:52:00
9:15 AM,35.6,26.6,70,29.70,10.0,WSW,9.2,18.4,N/A,,Overcast,250,2012-10-09 14:15:00
9:35 AM,35.6,26.6,70,29.71,10.0,WSW,11.5,16.1,N/A,,Overcast,250,2012-10-09 14:35:00
9:52 AM,35.6,26.6,70,29.72,10.0,West,11.5,19.6,N/A,,Overcast,260,2012-10-09 14:52:00
10:15 AM,35.6,28.4,75,29.72,7.0,West,6.9,18.4,N/A,Rain,Light Rain,270,2012-10-09 15:15:00
10:35 AM,35.6,28.4,75,29.73,10.0,West,12.7,21.9,N/A,,Overcast,280,2012-10-09 15:35:00
10:52 AM,35.6,28.4,75,29.74,10.0,West,9.2,20.7,N/A,,Overcast,280,2012-10-09 15:52:00
11:15 AM,35.6,30.2,81,29.74,10.0,WNW,12.7,17.3,N/A,,Overcast,290,2012-10-09 16:15:00
11:35 AM,37.4,30.2,75,29.74,10.0,West,9.2,18.4,N/A,,Overcast,280,2012-10-09 16:35:00
11:53 AM,37.4,30.2,75,29.75,10.0,West,11.5,17.3,N/A,,Overcast,280,2012-10-09 16:53:00
12:15 PM,35.6,32.0,87,29.76,4.0,WNW,15.0,21.9,N/A,Rain,Light Rain,290,2012-10-09 17:15:00
12:35 PM,35.6,30.2,81,29.77,10.0,WNW,17.3,24.2,N/A,,Overcast,300,2012-10-09 17:35:00
12:53 PM,33.8,30.2,87,29.78,10.0,WNW,12.7,25.3,N/A,,Overcast,300,2012-10-09 17:53:00
1:15 PM,35.6,30.2,81,29.79,10.0,WNW,13.8,18.4,N/A,,Overcast,300,2012-10-09 18:15:00
1:35 PM,37.4,30.2,75,29.80,10.0,WNW,15.0,21.9,N/A,,Overcast,300,2012-10-09 18:35:00
1:53 PM,35.6,30.2,81,29.81,10.0,NW,20.7,29.9,N/A,,Overcast,310,2012-10-09 18:53:00
2:15 PM,35.6,30.2,81,29.82,5.0,WNW,12.7,25.3,N/A,Rain,Light Rain,300,2012-10-09 19:15:00
2:35 PM,35.6,30.2,81,29.82,4.0,NW,17.3,24.2,N/A,Rain,Light Rain,320,2012-10-09 19:35:00
2:53 PM,35.6,28.4,75,29.83,10.0,NW,18.4,25.3,N/A,,Overcast,310,2012-10-09 19:53:00
3:14 PM,37.4,28.4,70,29.84,10.0,NW,19.6,27.6,N/A,,Overcast,310,2012-10-09 20:14:00
3:35 PM,35.6,26.6,70,29.84,10.0,NW,18.4,23.0,N/A,,Overcast,310,2012-10-09 20:35:00
3:53 PM,35.6,26.6,70,29.85,10.0,NW,16.1,23.0,N/A,,Overcast,320,2012-10-09 20:53:00
4:15 PM,35.6,26.6,70,29.86,10.0,NW,19.6,24.2,N/A,,Overcast,310,2012-10-09 21:15:00
4:35 PM,35.6,26.6,70,29.87,10.0,NW,13.8,26.5,N/A,,Overcast,310,2012-10-09 21:35:00
4:53 PM,35.6,26.6,70,29.87,10.0,NW,19.6,26.5,N/A,,Overcast,310,2012-10-09 21:53:00
5:15 PM,35.6,26.6,70,29.88,10.0,WNW,12.7,19.6,N/A,,Overcast,290,2012-10-09 22:15:00
5:35 PM,35.6,26.6,70,29.89,10.0,NW,20.7,26.5,N/A,,Overcast,310,2012-10-09 22:35:00
5:53 PM,33.8,24.8,70,29.90,10.0,NW,17.3,25.3,N/A,,Overcast,310,2012-10-09 22:53:00
6:15 PM,33.8,24.8,70,29.90,10.0,WNW,15.0,21.9,N/A,,Overcast,300,2012-10-09 23:15:00
6:35 PM,33.8,26.6,75,29.91,10.0,WNW,13.8,19.6,N/A,,Overcast,300,2012-10-09 23:35:00
6:52 PM,33.8,26.6,75,29.92,10.0,NW,11.5,-,N/A,,Overcast,310,2012-10-09 23:52:00
7:15 PM,33.8,26.6,75,29.92,10.0,NW,8.1,-,N/A,,Overcast,310,2012-10-10 00:15:00
7:35 PM,33.8,24.8,70,29.93,10.0,NW,10.4,18.4,N/A,,Scattered Clouds,310,2012-10-10 00:35:00
7:53 PM,33.8,24.8,70,29.94,10.0,WNW,9.2,-,N/A,,Scattered Clouds,300,2012-10-10 00:53:00
8:15 PM,33.8,24.8,70,29.94,10.0,WNW,4.6,-,N/A,,Mostly Cloudy,290,2012-10-10 01:15:00
8:35 PM,33.8,24.8,70,29.94,10.0,NW,10.4,18.4,N/A,,Overcast,310,2012-10-10 01:35:00
8:53 PM,33.8,24.8,70,29.95,10.0,WNW,10.4,-,N/A,,Overcast,300,2012-10-10 01:53:00
9:15 PM,32.0,24.8,75,29.95,10.0,WNW,8.1,-,N/A,,Overcast,300,2012-10-10 02:15:00
9:35 PM,30.2,24.8,80,29.96,10.0,WNW,8.1,-,N/A,,Scattered Clouds,290,2012-10-10 02:35:00
9:52 PM,30.2,24.8,80,29.96,10.0,WNW,5.8,-,N/A,,Clear,290,2012-10-10 02:52:00
10:15 PM,30.2,24.8,80,29.97,10.0,WNW,6.9,-,N/A,,Scattered Clouds,290,2012-10-10 03:15:00
10:35 PM,30.2,24.8,80,29.97,10.0,WNW,5.8,-,N/A,,Overcast,290,2012-10-10 03:35:00
10:53 PM,28.4,24.8,86,29.97,10.0,WNW,4.6,-,N/A,,Mostly Cloudy,290,2012-10-10 03:53:00
11:14 PM,28.4,23.0,80,29.97,10.0,West,3.5,-,N/A,,Scattered Clouds,270,2012-10-10 04:14:00
11:35 PM,26.6,21.2,80,29.97,10.0,West,5.8,-,N/A,,Scattered Clouds,260,2012-10-10 04:35:00
11:53 PM,26.6,21.2,80,29.97,10.0,West,4.6,-,N/A,,Scattered Clouds,270,2012-10-10 04:53:00